sat.trackr.live / text

‹ back to catalog

STARLINK-2611

NORAD 48364 · 2021-038M

PAYLOAD ACTIVE UNKNOWN

§ Identity

Operator
Country
US
Launch date
2021-05-04
Launch site
AFETR
Launch vehicle
Mass (kg)
RCS (m²)

Purposes: comms

External: N2YO · Heavens-Above · Gunter

§ Orbital elements

Epoch: 2026-09-19T22:14:37.949568Z

Period
94.01 min
Inclination
53.1595°
Eccentricity
0.0001316
Mean motion
15.31711215 rev/d
Perigee alt
469.8 km
Apogee alt
471.6 km
Semi-major
6,848.8 km
B*
-1.0663e-5
RAAN
163.8541°
Arg perigee
110.3780°
Mean anomaly
249.7363°
Rev number
29,699

§ Raw data

STARLINK-26111 48364U 21038M   26262.92682812 -.00000696  00000+0 -10663-4 0  99972 48364  53.1595 163.8541 0001316 110.3780 249.7363 15.31711215296990

JSON: /api/v1/satellites/48364 · /tle

For live sub-satellite position, see the globe view (requires WebGL).

§ Visibility from observer

Set your observer location to see the next 7 days of passes ≥ 10°. The values pass through the URL so the page stays shareable.

No JS? Fill the form by hand. The geolocation button needs JavaScript.